This is the latest recevied weather packets stored in our database for station/object WK1F-2. If no packets are shown the sender has not sent any weather packets the latest 10 day(s).
| Time | Temp. | Humidity | Pressure | Rain* | Wind** | Luminosity | Snow |
|---|---|---|---|---|---|---|---|
| 1777583390 | 30° C | 42% | 1006.5 hPa | 0 mm | - | - | - |
| 1777583090 | 29.44° C | 43% | 1006.5 hPa | 0 mm | - | - | - |
| 1777582790 | 29.44° C | 44% | 1006.5 hPa | 0 mm | - | - | - |
| 1777582489 | 29.44° C | 46% | 1006.4 hPa | 0 mm | - | - | - |
| 1777582189 | 29.44° C | 49% | 1006.5 hPa | 0 mm | - | - | - |
| 1777581889 | 29.44° C | 49% | 1006.5 hPa | 0 mm | - | - | - |
| 1777581589 | 30° C | 49% | 1006.6 hPa | 0 mm | - | - | - |
| 1777581289 | 30° C | 48% | 1006.6 hPa | 0 mm | - | - | - |
| 1777580989 | 30° C | 48% | 1006.8 hPa | 0 mm | - | - | - |
| 1777580689 | 30° C | 44% | 1006.9 hPa | 0 mm | - | - | - |
| 1777580389 | 30° C | 41% | 1007 hPa | 0 mm | - | - | - |
| 1777580089 | 30.56° C | 41% | 1007.1 hPa | 0 mm | - | - | - |
| 1777579789 | 31.11° C | 39% | 1007.1 hPa | 0 mm | - | - | - |
| 1777579489 | 31.11° C | 39% | 1007.1 hPa | 0 mm | - | - | - |
| 1777579189 | 31.11° C | 40% | 1007.2 hPa | 0 mm | - | - | - |
| 1777578889 | 30.56° C | 41% | 1007.3 hPa | 0 mm | - | - | - |
| 1777578589 | 30° C | 42% | 1007.4 hPa | 0 mm | - | - | - |
| 1777578289 | 30° C | 42% | 1007.5 hPa | 0 mm | - | - | - |
| 1777577989 | 30° C | 41% | 1007.7 hPa | 0 mm | - | - | - |
| 1777577689 | 30° C | 40% | 1007.7 hPa | 0 mm | - | - | - |
| 1777577389 | 30.56° C | 40% | 1007.7 hPa | 0 mm | - | - | - |
| 1777577089 | 30.56° C | 39% | 1007.7 hPa | 0 mm | - | - | - |
| 1777576789 | 30.56° C | 40% | 1007.6 hPa | 0 mm | - | - | - |
| 1777576489 | 31.11° C | 39% | 1007.8 hPa | 0 mm | - | - | - |
| 1777576189 | 31.11° C | 40% | 1007.7 hPa | 0 mm | - | - | - |
* Rain latest hour (hover to see other rain measurements)
** Current wind speed in m/s (hover to see current wind gust speed)